| time (UTC) | temp F | wind direction | speed MPH | gust MPH | rain 1hr in | rain 24hr in | rain mn in | humidity % | barometer mb |
| 20260506103541 | 55 | 360 | 1.0 | 4.0 | 0.00 | 0.00 | 0.00 | 92 | 1009.4 |
| 20260506103048 | 55 | 219 | 1.0 | 6.0 | 0.00 | 0.00 | 0.00 | 92 | 1009.4 |
| 20260506102544 | 54 | 238 | 1.0 | 6.0 | 0.00 | 0.00 | 0.00 | 92 | 1009.3 |
| 20260506102045 | 54 | 360 | 2.0 | 6.0 | 0.00 | 0.00 | 0.00 | 92 | 1009.6 |
| 20260506101547 | 54 | 215 | 1.0 | 2.0 | 0.00 | 0.00 | 0.00 | 92 | 1009.5 |
| 20260506101042 | 54 | 236 | 0.0 | 2.0 | 0.00 | 0.00 | 0.00 | 92 | 1009.6 |
| 20260506100544 | 54 | 240 | 0.0 | 2.0 | 0.00 | 0.00 | 0.00 | 91 | 1009.4 |
| 20260506100101 | 54 | 241 | 0.0 | 2.0 | 0.00 | 0.00 | 0.00 | 91 | 1009.3 |
| 20260506095542 | 54 | 0 | 0.0 | 2.0 | 0.00 | 0.00 | 0.00 | 91 | 1009.3 |
| 20260506095042 | 54 | 0 | 0.0 | 2.0 | 0.00 | 0.00 | 0.00 | 91 | 1009.2 |
| 20260506094555 | 54 | 0 | 0.0 | 2.0 | 0.00 | 0.00 | 0.00 | 91 | 1009.3 |
| 20260506094041 | 54 | 0 | 0.0 | 2.0 | 0.00 | 0.00 | 0.00 | 91 | 1009.3 |
| 20260506093541 | 54 | 0 | 0.0 | 3.0 | 0.00 | 0.00 | 0.00 | 91 | 1009.4 |
| 20260506093043 | 55 | 217 | 0.0 | 3.0 | 0.00 | 0.00 | 0.00 | 91 | 1009.3 |
| 20260506092542 | 55 | 0 | 0.0 | 2.0 | 0.00 | 0.00 | 0.00 | 90 | 1009.2 |
| 20260506092045 | 55 | 0 | 0.0 | 2.0 | 0.00 | 0.00 | 0.00 | 90 | 1009.3 |
| 20260506091543 | 55 | 0 | 0.0 | 2.0 | 0.00 | 0.00 | 0.00 | 91 | 1009.4 |
| 20260506091043 | 55 | 0 | 0.0 | 2.0 | 0.00 | 0.00 | 0.00 | 91 | 1009.5 |
| 20260506090541 | 55 | 226 | 0.0 | 2.0 | 0.00 | 0.00 | 0.00 | 91 | 1009.5 |
| 20260506090043 | 55 | 209 | 0.0 | 2.0 | 0.00 | 0.00 | 0.00 | 91 | 1009.4 |
| 20260506085541 | 55 | 0 | 0.0 | 2.0 | 0.00 | 0.00 | 0.00 | 91 | 1009.4 |
| 20260506085041 | 55 | 207 | 0.0 | 2.0 | 0.00 | 0.00 | 0.00 | 91 | 1009.4 |
| 20260506084615 | 55 | 186 | 0.0 | 2.0 | 0.00 | 0.00 | 0.00 | 91 | 1009.6 |
| 20260506084041 | 55 | 185 | 0.0 | 2.0 | 0.00 | 0.00 | 0.00 | 91 | 1009.6 |
| 20260506083540 | 54 | 0 | 0.0 | 2.0 | 0.00 | 0.00 | 0.00 | 91 | 1009.7 |
| 20260506083046 | 54 | 196 | 0.0 | 1.0 | 0.00 | 0.00 | 0.00 | 91 | 1009.6 |
| 20260506082541 | 54 | 0 | 0.0 | 1.0 | 0.00 | 0.00 | 0.00 | 91 | 1009.7 |
| 20260506082043 | 54 | 199 | 0.0 | 2.0 | 0.00 | 0.00 | 0.00 | 91 | 1009.7 |
| 20260506081553 | 54 | 0 | 0.0 | 2.0 | 0.00 | 0.00 | 0.00 | 91 | 1009.7 |
| 20260506081041 | 55 | 198 | 0.0 | 2.0 | 0.00 | 0.00 | 0.00 | 90 | 1009.7 |
| 20260506080542 | 55 | 195 | 1.0 | 2.0 | 0.00 | 0.00 | 0.00 | 90 | 1009.6 |
| 20260506073050 | 54 | 205 | 0.0 | 2.0 | 0.00 | 0.00 | 0.00 | 91 | 1010.0 |
| 20260506072541 | 54 | 0 | 0.0 | 2.0 | 0.00 | 0.00 | 0.00 | 90 | 1009.9 |
| 20260506072042 | 54 | 198 | 0.0 | 2.0 | 0.00 | 0.00 | 0.00 | 90 | 1009.8 |
| 20260506071550 | 54 | 0 | 0.0 | 1.0 | 0.00 | 0.00 | 0.00 | 90 | 1009.8 |
| 20260506071041 | 54 | 0 | 0.0 | 2.0 | 0.00 | 0.00 | 0.00 | 90 | 1009.8 |
| 20260506070541 | 54 | 0 | 0.0 | 2.0 | 0.00 | 0.00 | 0.00 | 90 | 1009.8 |
| 20260506062041 | 55 | 0 | 1.0 | 2.0 | 0.00 | 0.00 | 0.00 | 89 | 1009.7 |
| 20260506061549 | 55 | 203 | 1.0 | 2.0 | 0.00 | 0.00 | 0.00 | 89 | 1009.7 |
| 20260506061041 | 55 | 215 | 1.0 | 2.0 | 0.00 | 0.00 | 0.00 | 89 | 1009.8 |
| 20260506060541 | 55 | 192 | 0.0 | 2.0 | 0.00 | 0.00 | 0.00 | 89 | 1009.8 |
| 20260506051041 | 56 | 223 | 0.0 | 8.0 | 0.00 | 0.00 | 0.00 | 86 | 1010.0 |
| 20260506050542 | 56 | 360 | 1.0 | 8.0 | 0.00 | 0.00 | 0.00 | 86 | 1010.0 |
| 20260506045042 | 57 | 360 | 1.0 | 9.0 | 0.00 | 0.00 | 0.00 | 85 | 1010.1 |
| 20260506044552 | 57 | 237 | 2.0 | 10.0 | 0.00 | 0.00 | 0.00 | 85 | 1010.1 |
| 20260506044045 | 57 | 242 | 4.0 | 10.0 | 0.00 | 0.00 | 0.00 | 85 | 1010.1 |
| 20260506043544 | 57 | 224 | 3.0 | 8.0 | 0.00 | 0.00 | 0.00 | 86 | 1010.1 |
| 20260506043048 | 57 | 232 | 2.0 | 7.0 | 0.00 | 0.00 | 0.00 | 86 | 1010.1 |
| 20260506042541 | 57 | 233 | 1.0 | 8.0 | 0.00 | 0.00 | 0.00 | 86 | 1010.1 |
| 20260506042041 | 57 | 360 | 1.0 | 8.0 | 0.00 | 0.00 | 0.00 | 85 | 1010.0 |
| 20260506041606 | 57 | 231 | 3.0 | 8.0 | 0.00 | 0.00 | 0.00 | 84 | 1010.1 |
| 20260506041041 | 58 | 360 | 4.0 | 8.0 | 0.00 | 0.00 | 0.00 | 84 | 1010.1 |
| 20260506040541 | 58 | 242 | 3.0 | 8.0 | 0.00 | 0.00 | 0.00 | 83 | 1010.0 |
| 20260506040049 | 59 | 217 | 4.0 | 8.0 | 0.00 | 0.00 | 0.00 | 83 | 1010.1 |
| 20260506035541 | 59 | 229 | 4.0 | 8.0 | 0.00 | 0.00 | 0.00 | 83 | 1010.1 |
| 20260506035041 | 59 | 234 | 4.0 | 8.0 | 0.00 | 0.00 | 0.00 | 83 | 1010.1 |
| 20260506034555 | 59 | 224 | 1.0 | 3.0 | 0.00 | 0.00 | 0.00 | 82 | 1010.1 |
| 20260506034043 | 59 | 220 | 1.0 | 2.0 | 0.00 | 0.00 | 0.00 | 81 | 1010.0 |
| 20260506033542 | 59 | 217 | 1.0 | 2.0 | 0.00 | 0.00 | 0.00 | 81 | 1010.0 |
| 20260506033052 | 59 | 360 | 1.0 | 2.0 | 0.00 | 0.00 | 0.00 | 81 | 1010.0 |
| 20260506032541 | 59 | 233 | 1.0 | 2.0 | 0.00 | 0.00 | 0.00 | 80 | 1010.0 |
| 20260506032041 | 60 | 0 | 1.0 | 2.0 | 0.00 | 0.00 | 0.00 | 80 | 1010.0 |
| 20260506031553 | 60 | 360 | 1.0 | 2.0 | 0.00 | 0.00 | 0.00 | 80 | 1009.9 |
| 20260506031042 | 60 | 243 | 1.0 | 2.0 | 0.00 | 0.00 | 0.00 | 79 | 1009.9 |
| 20260506030544 | 60 | 250 | 1.0 | 9.0 | 0.00 | 0.00 | 0.00 | 79 | 1010.1 |
| 20260506030047 | 60 | 360 | 2.0 | 9.0 | 0.00 | 0.00 | 0.00 | 79 | 1010.1 |
| 20260506025541 | 60 | 250 | 1.0 | 6.0 | 0.00 | 0.00 | 0.00 | 80 | 1010.0 |
| 20260506025044 | 59 | 236 | 2.0 | 9.0 | 0.00 | 0.00 | 0.00 | 80 | 1010.1 |
| 20260506024544 | 59 | 246 | 1.0 | 9.0 | 0.00 | 0.00 | 0.00 | 80 | 1010.1 |
| 20260506024042 | 60 | 238 | 4.0 | 9.0 | 0.00 | 0.00 | 0.00 | 80 | 1010.1 |
| 20260506023541 | 60 | 228 | 5.0 | 9.0 | 0.00 | 0.00 | 0.00 | 80 | 1010.0 |
| 20260506023103 | 59 | 248 | 1.0 | 14.0 | 0.00 | 0.00 | 0.00 | 80 | 1010.1 |
| 20260506022542 | 59 | 271 | 4.0 | 14.0 | 0.00 | 0.00 | 0.00 | 80 | 1010.1 |
| 20260506022042 | 59 | 286 | 1.0 | 7.0 | 0.00 | 0.00 | 0.00 | 81 | 1010.1 |
| 20260506021608 | 59 | 258 | 2.0 | 7.0 | 0.00 | 0.00 | 0.00 | 80 | 1009.9 |
| 20260506021049 | 59 | 240 | 1.0 | 8.0 | 0.00 | 0.00 | 0.00 | 80 | 1009.8 |
| 20260506020541 | 59 | 248 | 1.0 | 10.0 | 0.00 | 0.00 | 0.00 | 80 | 1009.9 |
| 20260506020048 | 59 | 244 | 1.0 | 10.0 | 0.00 | 0.00 | 0.00 | 79 | 1009.9 |
| 20260506015542 | 59 | 229 | 4.0 | 12.0 | 0.00 | 0.00 | 0.00 | 79 | 1009.8 |
| 20260506015046 | 59 | 255 | 1.0 | 12.0 | 0.00 | 0.00 | 0.00 | 78 | 1009.7 |
| 20260506014604 | 60 | 266 | 2.0 | 10.0 | 0.00 | 0.00 | 0.00 | 78 | 1009.6 |
| 20260506014045 | 60 | 278 | 4.0 | 10.0 | 0.00 | 0.00 | 0.00 | 78 | 1009.6 |
| 20260506013544 | 60 | 275 | 4.0 | 10.0 | 0.00 | 0.00 | 0.00 | 78 | 1009.5 |
| 20260506013057 | 60 | 283 | 1.0 | 11.0 | 0.00 | 0.00 | 0.00 | 77 | 1009.5 |
| 20260506012541 | 61 | 240 | 6.0 | 14.0 | 0.00 | 0.00 | 0.00 | 76 | 1009.2 |
| 20260506012042 | 61 | 249 | 8.0 | 20.0 | 0.00 | 0.00 | 0.00 | 76 | 1009.3 |
| 20260506011608 | 61 | 227 | 9.0 | 21.0 | 0.00 | 0.00 | 0.00 | 75 | 1009.2 |
| 20260506011042 | 61 | 248 | 10.0 | 22.0 | 0.00 | 0.00 | 0.00 | 75 | 1009.1 |
| 20260506010542 | 61 | 212 | 10.0 | 22.0 | 0.00 | 0.00 | 0.00 | 75 | 1008.9 |
| 20260506010056 | 62 | 236 | 12.0 | 22.0 | 0.00 | 0.00 | 0.00 | 75 | 1008.8 |
| 20260506005546 | 61 | 238 | 10.0 | 18.0 | 0.00 | 0.00 | 0.00 | 76 | 1008.9 |
| 20260506005044 | 61 | 259 | 12.0 | 18.0 | 0.00 | 0.00 | 0.00 | 76 | 1008.9 |
| 20260506004548 | 60 | 237 | 9.0 | 16.0 | 0.00 | 0.00 | 0.00 | 77 | 1008.7 |
| 20260506004041 | 60 | 274 | 9.0 | 15.0 | 0.00 | 0.00 | 0.00 | 76 | 1008.5 |
| 20260506003541 | 61 | 253 | 9.0 | 21.0 | 0.00 | 0.00 | 0.00 | 76 | 1008.4 |
| 20260506003055 | 61 | 239 | 10.0 | 24.0 | 0.00 | 0.00 | 0.00 | 75 | 1008.4 |
| 20260506002542 | 61 | 251 | 12.0 | 24.0 | 0.00 | 0.00 | 0.00 | 76 | 1008.6 |
| 20260506002041 | 61 | 224 | 14.0 | 23.0 | 0.00 | 0.00 | 0.00 | 76 | 1008.3 |
| 20260506001554 | 61 | 256 | 7.0 | 15.0 | 0.00 | 0.00 | 0.00 | 76 | 1008.3 |
| 20260506001041 | 60 | 252 | 6.0 | 12.0 | 0.00 | 0.00 | 0.00 | 77 | 1008.2 |
| 20260506000544 | 60 | 261 | 3.0 | 12.0 | 0.00 | 0.00 | 0.00 | 77 | 1008.3 |
| 20260506000051 | 60 | 250 | 3.0 | 17.0 | 0.00 | 0.00 | 0.00 | 76 | 1008.2 |
| 20260505235544 | 61 | 237 | 6.0 | 20.0 | 0.00 | 0.00 | 0.00 | 76 | 1008.1 |
| 20260505235041 | 60 | 227 | 9.0 | 20.0 | 0.00 | 0.00 | 0.00 | 76 | 1007.9 |
| 20260505234542 | 60 | 241 | 10.0 | 24.0 | 0.00 | 0.00 | 0.00 | 76 | 1007.7 |
| 20260505234042 | 61 | 228 | 14.0 | 24.0 | 0.00 | 0.00 | 0.00 | 75 | 1007.6 |
| 20260505233541 | 60 | 203 | 15.0 | 21.0 | 0.00 | 0.00 | 0.00 | 76 | 1007.7 |
| 20260505233052 | 60 | 234 | 14.0 | 24.0 | 0.00 | 0.00 | 0.00 | 76 | 1007.5 |
| 20260505232541 | 60 | 217 | 16.0 | 23.0 | 0.00 | 0.00 | 0.00 | 76 | 1007.3 |
| 20260505232043 | 60 | 214 | 15.0 | 23.0 | 0.00 | 0.00 | 0.00 | 76 | 1007.3 |
| 20260505231604 | 61 | 212 | 15.0 | 26.0 | 0.00 | 0.00 | 0.00 | 75 | 1007.3 |
| 20260505231041 | 61 | 215 | 15.0 | 26.0 | 0.00 | 0.00 | 0.00 | 75 | 1007.1 |
| 20260505230543 | 61 | 210 | 16.0 | 26.0 | 0.00 | 0.00 | 0.00 | 75 | 1007.1 |
| 20260505230051 | 61 | 200 | 15.0 | 26.0 | 0.00 | 0.00 | 0.00 | 75 | 1007.1 |
| 20260505225542 | 61 | 210 | 15.0 | 26.0 | 0.00 | 0.00 | 0.00 | 75 | 1007.1 |
| 20260505225042 | 61 | 165 | 15.0 | 25.0 | 0.00 | 0.00 | 0.00 | 75 | 1007.0 |
| 20260505224551 | 61 | 193 | 13.0 | 21.0 | 0.00 | 0.00 | 0.00 | 75 | 1007.0 |
| 20260505224041 | 61 | 205 | 14.0 | 21.0 | 0.00 | 0.00 | 0.00 | 75 | 1007.1 |
| 20260505223542 | 61 | 228 | 13.0 | 21.0 | 0.00 | 0.00 | 0.00 | 76 | 1007.2 |
| 20260505223054 | 61 | 224 | 13.0 | 23.0 | 0.00 | 0.00 | 0.00 | 76 | 1007.3 |
| 20260505222545 | 61 | 218 | 13.0 | 25.0 | 0.00 | 0.00 | 0.00 | 76 | 1007.3 |
| 20260505222042 | 61 | 218 | 16.0 | 25.0 | 0.00 | 0.00 | 0.00 | 75 | 1007.3 |
| 20260505221555 | 61 | 219 | 15.0 | 23.0 | 0.00 | 0.00 | 0.00 | 75 | 1007.2 |
| 20260505221042 | 62 | 213 | 16.0 | 26.0 | 0.00 | 0.00 | 0.00 | 75 | 1007.2 |
| 20260505220543 | 62 | 213 | 17.0 | 26.0 | 0.00 | 0.00 | 0.00 | 74 | 1007.2 |
| 20260505215543 | 62 | 223 | 10.0 | 19.0 | 0.00 | 0.00 | 0.00 | 74 | 1007.3 |
| 20260505215042 | 63 | 219 | 10.0 | 16.0 | 0.00 | 0.00 | 0.00 | 73 | 1007.2 |
| 20260505214556 | 63 | 248 | 6.0 | 14.0 | 0.00 | 0.00 | 0.00 | 74 | 1007.3 |
| 20260505214043 | 64 | 242 | 1.0 | 11.0 | 0.00 | 0.00 | 0.00 | 74 | 1007.3 |
| 20260505213541 | 63 | 239 | 4.0 | 11.0 | 0.00 | 0.00 | 0.00 | 73 | 1007.2 |
| 20260505213053 | 64 | 234 | 2.0 | 10.0 | 0.00 | 0.00 | 0.00 | 73 | 1007.4 |
| 20260505212541 | 64 | 247 | 1.0 | 11.0 | 0.00 | 0.00 | 0.00 | 73 | 1007.4 |
| 20260505212042 | 64 | 237 | 6.0 | 11.0 | 0.00 | 0.00 | 0.00 | 72 | 1007.2 |
| 20260505211546 | 65 | 216 | 5.0 | 15.0 | 0.00 | 0.00 | 0.00 | 70 | 1007.3 |
| 20260505211043 | 66 | 187 | 6.0 | 15.0 | 0.00 | 0.00 | 0.00 | 71 | 1007.3 |
| 20260505210541 | 65 | 287 | 6.0 | 14.0 | 0.00 | 0.00 | 0.00 | 72 | 1007.2 |
| 20260505210055 | 65 | 277 | 4.0 | 14.0 | 0.00 | 0.00 | 0.00 | 73 | 1007.3 |
| 20260505205541 | 64 | 212 | 6.0 | 13.0 | 0.00 | 0.00 | 0.00 | 74 | 1007.5 |
| 20260505205044 | 63 | 250 | 5.0 | 11.0 | 0.00 | 0.00 | 0.00 | 74 | 1007.3 |
| 20260505204545 | 63 | 285 | 0.0 | 10.0 | 0.00 | 0.00 | 0.00 | 75 | 1007.3 |
| 20260505204041 | 63 | 244 | 3.0 | 10.0 | 0.00 | 0.00 | 0.00 | 75 | 1007.3 |
| 20260505203545 | 62 | 223 | 2.0 | 9.0 | 0.00 | 0.00 | 0.00 | 77 | 1007.1 |
| 20260505203107 | 62 | 211 | 3.0 | 11.0 | 0.00 | 0.00 | 0.00 | 77 | 1007.2 |
| 20260505202543 | 61 | 0 | 5.0 | 11.0 | 0.00 | 0.00 | 0.00 | 78 | 1007.3 |
| 20260505202042 | 61 | 232 | 5.0 | 12.0 | 0.00 | 0.00 | 0.00 | 77 | 1007.4 |
| 20260505201557 | 62 | 360 | 2.0 | 14.0 | 0.00 | 0.00 | 0.00 | 77 | 1007.3 |
| 20260505201045 | 61 | 221 | 7.0 | 14.0 | 0.00 | 0.00 | 0.00 | 77 | 1007.5 |
| 20260505200542 | 61 | 206 | 8.0 | 16.0 | 0.00 | 0.00 | 0.00 | 77 | 1007.5 |
| 20260505200055 | 61 | 159 | 8.0 | 16.0 | 0.00 | 0.00 | 0.00 | 78 | 1007.4 |
| 20260505195544 | 61 | 222 | 10.0 | 16.0 | 0.00 | 0.00 | 0.00 | 78 | 1007.5 |
| 20260505195041 | 61 | 208 | 7.0 | 15.0 | 0.00 | 0.00 | 0.00 | 77 | 1007.5 |
| 20260505194547 | 62 | 187 | 8.0 | 15.0 | 0.00 | 0.00 | 0.00 | 77 | 1007.7 |
| 20260505194042 | 62 | 146 | 8.0 | 20.0 | 0.00 | 0.00 | 0.00 | 77 | 1007.6 |
| 20260505193542 | 62 | 178 | 10.0 | 20.0 | 0.00 | 0.00 | 0.00 | 77 | 1007.6 |
| 20260505193052 | 62 | 186 | 11.0 | 18.0 | 0.00 | 0.00 | 0.00 | 77 | 1007.7 |
| 20260505192607 | 62 | 198 | 10.0 | 16.0 | 0.00 | 0.00 | 0.00 | 77 | 1007.7 |
| 20260505192044 | 62 | 215 | 8.0 | 16.0 | 0.00 | 0.00 | 0.00 | 77 | 1007.8 |
| 20260505191603 | 62 | 209 | 9.0 | 16.0 | 0.00 | 0.00 | 0.00 | 77 | 1008.0 |
| 20260505191041 | 62 | 196 | 10.0 | 15.0 | 0.00 | 0.00 | 0.00 | 76 | 1008.2 |
| 20260505190541 | 62 | 153 | 7.0 | 15.0 | 0.00 | 0.00 | 0.00 | 76 | 1008.3 |
| 20260505190100 | 62 | 188 | 8.0 | 14.0 | 0.00 | 0.00 | 0.00 | 77 | 1008.3 |
| 20260505185542 | 62 | 221 | 3.0 | 11.0 | 0.00 | 0.00 | 0.00 | 77 | 1008.5 |
| 20260505185041 | 63 | 203 | 5.0 | 13.0 | 0.00 | 0.00 | 0.00 | 77 | 1008.6 |
| 20260505184555 | 62 | 178 | 6.0 | 13.0 | 0.00 | 0.00 | 0.00 | 78 | 1008.5 |
| 20260505184042 | 61 | 168 | 7.0 | 15.0 | 0.00 | 0.00 | 0.00 | 78 | 1008.6 |
| 20260505183544 | 62 | 180 | 7.0 | 15.0 | 0.00 | 0.00 | 0.00 | 78 | 1008.5 |
| 20260505183053 | 62 | 203 | 8.0 | 15.0 | 0.00 | 0.00 | 0.00 | 77 | 1008.5 |
| 20260505182541 | 62 | 175 | 7.0 | 16.0 | 0.00 | 0.00 | 0.00 | 78 | 1008.6 |
| 20260505182041 | 62 | 182 | 8.0 | 16.0 | 0.00 | 0.00 | 0.00 | 78 | 1008.6 |
| 20260505181556 | 62 | 187 | 9.0 | 17.0 | 0.00 | 0.00 | 0.00 | 78 | 1008.5 |
| 20260505181041 | 62 | 185 | 9.0 | 17.0 | 0.00 | 0.00 | 0.00 | 78 | 1008.5 |
| 20260505180541 | 62 | 200 | 7.0 | 17.0 | 0.00 | 0.00 | 0.00 | 77 | 1008.6 |
| 20260505180053 | 62 | 187 | 10.0 | 17.0 | 0.00 | 0.00 | 0.00 | 77 | 1008.6 |
| 20260505175541 | 62 | 197 | 8.0 | 15.0 | 0.00 | 0.00 | 0.00 | 76 | 1008.5 |
| 20260505175041 | 62 | 176 | 8.0 | 15.0 | 0.00 | 0.00 | 0.00 | 77 | 1008.7 |
| 20260505174550 | 63 | 360 | 5.0 | 11.0 | 0.00 | 0.00 | 0.00 | 77 | 1008.6 |
| 20260505174042 | 62 | 185 | 6.0 | 13.0 | 0.00 | 0.00 | 0.00 | 77 | 1008.6 |
| 20260505173541 | 62 | 157 | 6.0 | 13.0 | 0.00 | 0.00 | 0.00 | 78 | 1008.6 |
| 20260505173052 | 63 | 186 | 5.0 | 13.0 | 0.00 | 0.00 | 0.00 | 77 | 1008.7 |
| 20260505172541 | 63 | 212 | 7.0 | 18.0 | 0.00 | 0.00 | 0.00 | 77 | 1008.6 |
| 20260505172042 | 63 | 208 | 8.0 | 18.0 | 0.00 | 0.00 | 0.00 | 76 | 1008.6 |
| 20260505171550 | 64 | 177 | 6.0 | 10.0 | 0.00 | 0.00 | 0.00 | 75 | 1008.9 |
| 20260505171042 | 64 | 163 | 3.0 | 8.0 | 0.00 | 0.00 | 0.00 | 75 | 1008.7 |
| 20260505170541 | 64 | 207 | 2.0 | 8.0 | 0.00 | 0.00 | 0.00 | 75 | 1008.9 |
| 20260505170103 | 64 | 208 | 5.0 | 8.0 | 0.00 | 0.00 | 0.00 | 75 | 1009.1 |
| 20260505165540 | 64 | 242 | 5.0 | 9.0 | 0.00 | 0.00 | 0.00 | 74 | 1009.1 |
| 20260505165045 | 65 | 222 | 3.0 | 9.0 | 0.00 | 0.00 | 0.00 | 72 | 1009.1 |
| 20260505164553 | 66 | 184 | 0.0 | 8.0 | 0.00 | 0.00 | 0.00 | 73 | 1009.1 |
| 20260505164042 | 65 | 200 | 3.0 | 8.0 | 0.00 | 0.00 | 0.00 | 73 | 1009.1 |
| 20260505163541 | 65 | 184 | 3.0 | 7.0 | 0.00 | 0.00 | 0.00 | 72 | 1009.1 |
| 20260505163045 | 65 | 180 | 1.0 | 3.0 | 0.00 | 0.00 | 0.00 | 73 | 1009.2 |
| 20260505162542 | 64 | 142 | 0.0 | 5.0 | 0.00 | 0.00 | 0.00 | 74 | 1009.3 |
| 20260505162042 | 64 | 171 | 1.0 | 5.0 | 0.00 | 0.00 | 0.00 | 74 | 1009.4 |
| 20260505161042 | 64 | 210 | 1.0 | 3.0 | 0.00 | 0.00 | 0.00 | 74 | 1009.4 |
| 20260505160542 | 64 | 202 | 1.0 | 3.0 | 0.00 | 0.00 | 0.00 | 73 | 1009.6 |
| 20260505153100 | 64 | 210 | 1.0 | 8.0 | 0.00 | 0.00 | 0.00 | 73 | 1009.9 |
| 20260505152541 | 63 | 218 | 4.0 | 8.0 | 0.00 | 0.00 | 0.00 | 75 | 1010.0 |
| 20260505152041 | 63 | 216 | 4.0 | 8.0 | 0.00 | 0.00 | 0.00 | 75 | 1010.0 |
| 20260505151559 | 62 | 360 | 5.0 | 8.0 | 0.00 | 0.00 | 0.00 | 76 | 1010.1 |
| 20260505151041 | 62 | 212 | 3.0 | 8.0 | 0.00 | 0.00 | 0.00 | 77 | 1010.3 |
| 20260505150542 | 62 | 223 | 4.0 | 9.0 | 0.00 | 0.00 | 0.00 | 77 | 1010.3 |
| 20260505140541 | 59 | 219 | 1.0 | 7.0 | 0.00 | 0.00 | 0.00 | 80 | 1010.2 |
| 20260505125041 | 56 | 360 | 0.0 | 2.0 | 0.00 | 0.00 | 0.00 | 87 | 1009.9 |
| 20260505124551 | 56 | 197 | 0.0 | 2.0 | 0.00 | 0.00 | 0.00 | 87 | 1010.0 |
| 20260505124041 | 56 | 227 | 0.0 | 2.0 | 0.00 | 0.00 | 0.00 | 87 | 1010.0 |
| 20260505123541 | 55 | 216 | 0.0 | 2.0 | 0.00 | 0.00 | 0.00 | 88 | 1010.1 |
| 20260505123054 | 55 | 207 | 0.0 | 2.0 | 0.00 | 0.00 | 0.00 | 89 | 1010.2 |
| 20260505122546 | 55 | 229 | 0.0 | 2.0 | 0.00 | 0.00 | 0.00 | 89 | 1010.4 |
| 20260505122041 | 54 | 0 | 0.0 | 2.0 | 0.00 | 0.00 | 0.00 | 89 | 1010.2 |
| 20260505121603 | 55 | 0 | 0.0 | 2.0 | 0.00 | 0.00 | 0.00 | 88 | 1009.9 |
| 20260505121044 | 55 | 0 | 0.0 | 2.0 | 0.00 | 0.00 | 0.00 | 88 | 1010.0 |
| 20260505120544 | 55 | 360 | 1.0 | 2.0 | 0.00 | 0.00 | 0.00 | 88 | 1010.4 |
| 20260505120054 | 55 | 215 | 1.0 | 2.0 | 0.00 | 0.00 | 0.00 | 88 | 1010.3 |
| 20260505115546 | 55 | 360 | 0.0 | 2.0 | 0.00 | 0.00 | 0.00 | 89 | 1010.4 |
| 20260505115042 | 55 | 244 | 0.0 | 2.0 | 0.00 | 0.00 | 0.00 | 89 | 1010.2 |
| 20260505114553 | 54 | 360 | 0.0 | 2.0 | 0.00 | 0.00 | 0.00 | 89 | 1010.4 |
| 20260505114042 | 55 | 360 | 1.0 | 2.0 | 0.00 | 0.00 | 0.00 | 89 | 1010.3 |
| 20260505113544 | 55 | 215 | 0.0 | 2.0 | 0.00 | 0.00 | 0.00 | 90 | 1010.5 |
| 20260505113053 | 54 | 250 | 1.0 | 2.0 | 0.00 | 0.00 | 0.00 | 91 | 1010.4 |
| 20260505112542 | 54 | 245 | 0.0 | 2.0 | 0.00 | 0.00 | 0.00 | 91 | 1010.4 |
| 20260505112042 | 53 | 0 | 1.0 | 2.0 | 0.00 | 0.00 | 0.00 | 91 | 1010.4 |
| 20260505111550 | 53 | 0 | 0.0 | 2.0 | 0.00 | 0.00 | 0.00 | 92 | 1010.6 |
| 20260505111041 | 53 | 0 | 0.0 | 2.0 | 0.00 | 0.00 | 0.00 | 91 | 1010.3 |
| 20260505110543 | 53 | 232 | 0.0 | 2.0 | 0.00 | 0.00 | 0.00 | 92 | 1010.2 |